When you browse on this site, cookies collect data to enhance your experience and personalize the content and advertising you see.
Visit our Privacy Policy to learn more. By continuing to use the site, you agree to this use of cookies and data.
  • In Hungary
  • List of Countries
  • For 7 days
  • Water Temperature
  • Weather Map
  • News
  • Weather Widgets
  • user-avatar
    Login

    Hourly Weather Razgrad

    Today, 20 February, Thursday

    Time Temperature Precipitation Wind Pressure Humidity
    00:00 +7°C° 0.2 mm 1 mps 742 mmHg 90%
    01:00 +7°C° 0.2 mm 1 mps 742 mmHg 90%
    02:00 +7°C° 0.2 mm 1 mps 741 mmHg 91%
    03:00 +7°C° 0.2 mm 1 mps 741 mmHg 91%
    04:00 +7°C° 0.2 mm 1 mps 741 mmHg 91%
    05:00 +7°C° 0.2 mm 1 mps 741 mmHg 91%
    06:00 +7°C° 0.4 mm 1 mps 741 mmHg 92%
    07:00 +7°C° 0.4 mm 1 mps 741 mmHg 92%
    08:00 +7°C° 0.4 mm 1 mps 741 mmHg 93%
    09:00 +7°C° 0.7 mm 1 mps 741 mmHg 92%
    10:00 +7°C° 0.7 mm 1 mps 741 mmHg 92%
    11:00 +6°C° 0.7 mm 2 mps 741 mmHg 91%
    12:00 +6°C° 0.7 mm 2 mps 741 mmHg 91%
    13:00 +6°C° 0.7 mm 2 mps 741 mmHg 91%
    14:00 +6°C° 0.7 mm 2 mps 741 mmHg 91%
    15:00 +6°C° 0.3 mm 2 mps 741 mmHg 91%
    16:00 +6°C° 0.3 mm 2 mps 741 mmHg 90%
    17:00 +6°C° 0.3 mm 2 mps 741 mmHg 90%
    18:00 +5°C° 0.3 mm 3 mps 742 mmHg 89%
    19:00 +4°C° 0.3 mm 3 mps 742 mmHg 88%
    20:00 +4°C° 0.3 mm 3 mps 743 mmHg 87%
    21:00 +4°C° 0.2 mm 3 mps 743 mmHg 88%
    22:00 +5°C° 0.2 mm 2 mps 743 mmHg 89%
    23:00 +5°C° 0.2 mm 2 mps 743 mmHg 90%

    Tomorrow, 21 February, Friday

    Time Temperature Precipitation Wind Pressure Humidity
    00:00 +5°C° 0.1 mm 2 mps 743 mmHg 91%
    01:00 +5°C° 0.1 mm 2 mps 743 mmHg 92%
    02:00 +4°C° 0.1 mm 2 mps 744 mmHg 93%
    03:00 +4°C° 0.1 mm 2 mps 744 mmHg 94%
    04:00 +4°C° 0.1 mm 2 mps 744 mmHg 94%
    05:00 +4°C° 0.1 mm 2 mps 744 mmHg 94%
    06:00 +4°C° 0.1 mm 2 mps 744 mmHg 93%
    07:00 +4°C° 0.1 mm 2 mps 745 mmHg 92%
    08:00 +4°C° 0.1 mm 2 mps 745 mmHg 91%
    15:00 +7°C° 0.1 mm 3 mps 745 mmHg 70%
    16:00 +7°C° 0.1 mm 3 mps 745 mmHg 72%
    17:00 +7°C° 0.1 mm 3 mps 745 mmHg 74%
    18:00 +5°C° 0.1 mm 3 mps 745 mmHg 78%
    19:00 +4°C° 0.1 mm 3 mps 745 mmHg 83%
    20:00 +4°C° 0.1 mm 3 mps 746 mmHg 87%
    21:00 +3°C° 0 mm 3 mps 746 mmHg 88%
    22:00 +3°C° 0 mm 3 mps 746 mmHg 88%
    23:00 +4°C° 0 mm 2 mps 745 mmHg 89%

    Day after tomorrow, 22 February, Saturday

    Time Temperature Precipitation Wind Pressure Humidity
    00:00 +2°C° 0 mm 3 mps 745 mmHg 86%
    01:00 +1°C° 0 mm 4 mps 746 mmHg 83%
    02:00 +1°C° 0 mm 4 mps 746 mmHg 80%
    03:00 +1°C° 0 mm 4 mps 746 mmHg 82%
    04:00 0°C° 0 mm 4 mps 745 mmHg 84%
    05:00 +1°C° 0 mm 3 mps 745 mmHg 87%
    06:00 +1°C° 0.2 mm 3 mps 746 mmHg 89%
    07:00 +1°C° 0.2 mm 3 mps 746 mmHg 91%
    08:00 +2°C° 0.2 mm 2 mps 747 mmHg 94%
    09:00 +2°C° 0.1 mm 3 mps 748 mmHg 91%
    10:00 +2°C° 0.1 mm 3 mps 748 mmHg 88%
    11:00 +3°C° 0.1 mm 4 mps 749 mmHg 85%
    12:00 +3°C° 0.1 mm 4 mps 749 mmHg 85%
    13:00 +3°C° 0.1 mm 4 mps 749 mmHg 84%
    14:00 +4°C° 0.1 mm 4 mps 750 mmHg 84%
    15:00 +4°C° 0.1 mm 4 mps 749 mmHg 80%
    16:00 +4°C° 0.1 mm 3 mps 749 mmHg 77%
    17:00 +4°C° 0.1 mm 3 mps 749 mmHg 73%
    18:00 +4°C° 0 mm 2 mps 750 mmHg 77%
    19:00 +4°C° 0 mm 2 mps 750 mmHg 81%
    20:00 +4°C° 0 mm 1 mps 751 mmHg 84%
    21:00 +4°C° 0 mm 1 mps 751 mmHg 85%
    22:00 +4°C° 0 mm 1 mps 751 mmHg 86%
    23:00 +4°C° 0 mm 1 mps 751 mmHg 86%

    23 February, Sunday

    Time Temperature Precipitation Wind Pressure Humidity
    00:00 +2°C° 0 mm 2 mps 750 mmHg 86%
    01:00 +2°C° 0 mm 2 mps 750 mmHg 86%
    02:00 +2°C° 0 mm 2 mps 750 mmHg 86%
    03:00 +2°C° 0 mm 2 mps 750 mmHg 85%
    04:00 +1°C° 0 mm 2 mps 749 mmHg 84%
    05:00 +1°C° 0 mm 2 mps 749 mmHg 83%
    06:00 +2°C° 0 mm 2 mps 749 mmHg 80%
    07:00 +2°C° 0 mm 2 mps 748 mmHg 76%
    08:00 +2°C° 0 mm 2 mps 748 mmHg 72%
    09:00 +3°C° 0 mm 3 mps 748 mmHg 63%
    10:00 +5°C° 0 mm 4 mps 748 mmHg 54%
    11:00 +6°C° 0 mm 4 mps 747 mmHg 45%
    12:00 +7°C° 0 mm 5 mps 747 mmHg 43%
    13:00 +9°C° 0 mm 5 mps 746 mmHg 42%
    14:00 +10°C° 0 mm 5 mps 746 mmHg 40%
    15:00 +9°C° 0 mm 5 mps 745 mmHg 44%
    16:00 +10°C° 0 mm 4 mps 745 mmHg 47%
    17:00 +10°C° 0 mm 4 mps 744 mmHg 50%
    18:00 +10°C° 0 mm 4 mps 744 mmHg 53%
    19:00 +8°C° 0 mm 4 mps 744 mmHg 55%
    20:00 +8°C° 0 mm 4 mps 744 mmHg 58%
    21:00 +8°C° 0 mm 4 mps 744 mmHg 57%
    22:00 +9°C° 0 mm 3 mps 743 mmHg 57%
    23:00 +9°C° 0 mm 3 mps 743 mmHg 57%

    24 February, Monday

    Time Temperature Precipitation Wind Pressure Humidity
    00:00 +9°C° 0 mm 2 mps 742 mmHg 54%
    01:00 +9°C° 0 mm 2 mps 741 mmHg 52%
    02:00 +8°C° 0 mm 2 mps 740 mmHg 49%
    03:00 +8°C° 0 mm 2 mps 740 mmHg 49%
    04:00 +8°C° 0 mm 2 mps 739 mmHg 48%
    05:00 +8°C° 0 mm 2 mps 738 mmHg 47%
    06:00 +8°C° 0 mm 4 mps 738 mmHg 47%
    07:00 +8°C° 0 mm 5 mps 738 mmHg 47%
    08:00 +9°C° 0 mm 7 mps 738 mmHg 48%
    09:00 +8°C° 0 mm 9 mps 738 mmHg 51%
    10:00 +9°C° 0 mm 11 mps 738 mmHg 55%
    11:00 +9°C° 0 mm 13 mps 739 mmHg 59%
    12:00 +9°C° 0.1 mm 13 mps 739 mmHg 54%
    13:00 +8°C° 0.1 mm 12 mps 739 mmHg 48%
    14:00 +8°C° 0.1 mm 11 mps 739 mmHg 43%
    15:00 +8°C° 0 mm 10 mps 740 mmHg 42%
    16:00 +8°C° 0 mm 9 mps 741 mmHg 42%
    17:00 +7°C° 0 mm 9 mps 742 mmHg 41%
    18:00 +6°C° 0 mm 8 mps 742 mmHg 44%
    19:00 +5°C° 0 mm 7 mps 743 mmHg 47%
    20:00 +4°C° 0 mm 6 mps 744 mmHg 50%
    21:00 +3°C° 0 mm 6 mps 745 mmHg 53%
    22:00 +3°C° 0 mm 5 mps 745 mmHg 56%
    23:00 +3°C° 0 mm 4 mps 746 mmHg 58%

    25 February, Tuesday

    Time Temperature Precipitation Wind Pressure Humidity
    00:00 +3°C° 0 mm 4 mps 746 mmHg 62%
    01:00 +2°C° 0 mm 3 mps 746 mmHg 65%
    02:00 +2°C° 0 mm 2 mps 746 mmHg 69%
    03:00 +2°C° 0 mm 2 mps 747 mmHg 72%
    04:00 +2°C° 0 mm 2 mps 747 mmHg 75%
    05:00 +1°C° 0 mm 2 mps 747 mmHg 78%
    06:00 +2°C° 0 mm 2 mps 747 mmHg 77%
    07:00 +2°C° 0 mm 2 mps 747 mmHg 76%
    08:00 +2°C° 0 mm 2 mps 747 mmHg 75%
    09:00 +2°C° 0 mm 3 mps 747 mmHg 68%
    10:00 +4°C° 0 mm 3 mps 747 mmHg 62%
    11:00 +6°C° 0 mm 4 mps 747 mmHg 56%
    12:00 +6°C° 0 mm 4 mps 746 mmHg 51%
    13:00 +7°C° 0 mm 4 mps 746 mmHg 46%
    14:00 +8°C° 0 mm 4 mps 745 mmHg 42%
    15:00 +9°C° 0 mm 3 mps 745 mmHg 42%
    16:00 +9°C° 0 mm 3 mps 744 mmHg 42%
    17:00 +9°C° 0 mm 2 mps 744 mmHg 43%
    18:00 +8°C° 0 mm 2 mps 744 mmHg 46%
    19:00 +7°C° 0 mm 2 mps 744 mmHg 49%
    20:00 +7°C° 0 mm 1 mps 743 mmHg 52%
    21:00 +6°C° 0 mm 1 mps 743 mmHg 54%
    22:00 +6°C° 0 mm 1 mps 743 mmHg 55%
    23:00 +5°C° 0 mm 2 mps 743 mmHg 57%
    Show more